This demonstration page uses our WeatherBlox Daily Observations layout. Learn more.

Left ArrowRight Arrow

Hourly Observations for June 3, 2020

Temp ( °F °C ) Dew Point ( °F °C ) Humidity (%) Winds ( mph kmh ) Pressure ( in mb ) Visibility ( mi km ) Precip ( " mm )
12:53 am 00:53 Clear 68 20 64 17.8 87 87 Calm 30.09 1019 10 16 0.00 0.00
1:53 am 01:53 Clear 71 21.7 65 18.3 81 81 SW 3 6 30.07 1018 10 16 0.00 0.00
2:53 am 02:53 Clear 71 21.7 65 18.3 81 81 SSW 3 6 30.06 1018 10 16 0.00 0.00
3:53 am 03:53 Clear 69 20.6 64 17.8 84 84 Calm 30.06 1018 10 16 0.00 0.00
4:53 am 04:53 Clear 69 20.6 64 17.8 84 84 Calm 30.06 1018 10 16 0.00 0.00
5:53 am 05:53 Clear 66 18.9 63 17.2 90 90 Calm 30.06 1018 10 16 0.00 0.00
6:53 am 06:53 Sunny 66 18.9 63 17.2 90 90 Calm 30.06 1018 10 16 0.00 0.00
7:53 am 07:53 Sunny 70 21.1 65 18.3 84 84 Calm 30.07 1018 10 16 0.00 0.00
8:53 am 08:53 Sunny 75 23.9 66 18.9 74 74 Calm 30.07 1018 10 16 0.00 0.00
9:53 am 09:53 Sunny 79 26.1 65 18.3 62 62 WNW 8 13 30.06 1018 10 16 0.00 0.00
10:53 am 10:53 Mostly Sunny 81 27.2 65 18.3 58 58 WNW 8 13 30.05 1018 10 16 0.00 0.00
11:53 am 11:53 Mostly Sunny 83 28.3 66 18.9 57 57 NW 7 11 30.04 1017 10 16 0.00 0.00
12:53 pm 12:53 Partly Cloudy 85 29.4 64 17.8 50 50 Calm 30.01 1016 10 16 0.00 0.00
1:53 pm 13:53 Partly Cloudy 85 29.4 65 18.3 51 51 VRB 3 6 29.98 1015 10 16 0.00 0.00
2:53 pm 14:53 Mostly Sunny 84 28.9 66 18.9 55 55 S 9 15 29.96 1014 10 16 0.00 0.00
3:53 pm 15:53 Sunny 85 29.4 66 18.9 53 53 S 8 13 29.93 1014 10 16 0.00 0.00
4:53 pm 16:53 Mostly Sunny 87 30.6 66 18.9 50 50 SSW 8 13 29.93 1014 10 16 0.00 0.00
5:53 pm 17:53 Partly Cloudy 86 30 65 18.3 49 49 SSW 7 11 29.92 1013 10 16 0.00 0.00
6:53 pm 18:53 Partly Cloudy 86 30 65 18.3 49 49 SSW 6 9 29.91 1013 10 16 0.00 0.00
7:53 pm 19:53 Partly Cloudy 84 28.9 64 17.8 51 51 SSW 6 9 29.93 1014 10 16 0.00 0.00
8:53 pm 20:53 Clear 82 27.8 64 17.8 55 55 SSW 6 9 29.92 1013 10 16 0.00 0.00
9:53 pm 21:53 Clear 80 26.7 65 18.3 60 60 SSW 3 6 29.93 1014 10 16 0.00 0.00
10:53 pm 22:53 Clear 76 24.4 66 18.9 72 72 SSW 5 7 29.94 1014 10 16 0.00 0.00
11:53 pm 23:53 Clear 76 24.4 65 18.3 69 69 Calm 29.94 1014 10 16 0.00 0.00

Powered by AerisWeather